User: anonymous   Login
Location: Unspecified
(0.0000°N, 0.0000°E)
Time: 22:05:14
(UTC+01:00)
Language:

PSLV R/B - Orbit

View from above orbital plane
View from above orbital plane
View from above satellite
View from above satellite

Ground track
Ground track

The orbit data is extracted from the following two-line orbital elements,

1 29713U 07001E   15031.04660660  .00002400  00000-0  29593-3 0  5496
2 29713 097.6643 020.8849 0027347 068.4111 292.0013 14.83534778435261
Epoch (UTC): 31 January 2015 01:07:06
Eccentricity: 0.0027347
inclination: 97.6643°
perigee height: 599 km
apogee height: 637 km
right ascension of ascending node: 20.8849°
argument of perigee: 68.4111°
revolutions per day: 14.83534778
mean anomaly at epoch: 292.0013°
orbit number at epoch: 43526

The dashed part of the orbit path shows where the satellite is in the earth's shadow,  

DLR